Location: Newark
(41.6500°N, 71.4833°W)
Time: 11:34:04
(UTC+00:00)

deb Explorer IX - Pass Details

Date: 26 January 2020
Orbit: 549 x 1099 km, 38.8° (Epoch: 22 February)

Event Time Altitude Azimuth Distance (km) Brightness Sun altitude
Rises 03:58:15 0° 260° (W) 3,814 - -63.9°
Reaches altitude 10° 04:00:56 10° 258° (WSW) 2,901 - -64.1°
Maximum altitude 04:08:06 71° 176° (S) 1,155 - -64.8°
Drops below altitude 10° 04:15:17 10° 94° (E) 2,904 - -65.4°
Sets 04:17:58 0° 92° (E) 3,818 - -65.6°
